| time (UTC) | temp F | wind direction | speed MPH | gust MPH | rain 1hr in | rain 24hr in | rain mn in | humidity % | barometer mb |
| 20260507030211 | 47 | 202 | 9.0 | 0.0 | 0.00 | 0.00 | 0.00 | 88 | 1009.5 |
| 20260507023211 | 47 | 204 | 7.0 | 0.0 | 0.00 | 0.00 | 0.00 | 89 | 1009.4 |
| 20260507020211 | 46 | 205 | 8.0 | 0.0 | 0.00 | 0.00 | 0.00 | 89 | 1009.3 |
| 20260507013212 | 46 | 215 | 8.0 | 0.0 | 0.00 | 0.00 | 0.00 | 90 | 1009.2 |
| 20260507010211 | 46 | 215 | 5.0 | 0.0 | 0.00 | 0.00 | 0.00 | 90 | 1009.2 |
| 20260507003209 | 46 | 215 | 5.0 | 0.0 | 0.00 | 0.00 | 0.00 | 89 | 1008.9 |
| 20260507000209 | 46 | 215 | 6.0 | 0.0 | 0.00 | 0.00 | 0.00 | 90 | 1008.8 |
| 20260506233209 | 46 | 215 | 5.0 | 0.0 | 0.00 | 0.00 | 0.00 | 89 | 1008.8 |
| 20260506230209 | 46 | 215 | 4.0 | 0.0 | 0.00 | 0.00 | 0.00 | 89 | 1008.7 |
| 20260506223209 | 47 | 215 | 4.0 | 0.0 | 0.00 | 0.00 | 0.00 | 89 | 1008.6 |
| 20260506220209 | 47 | 215 | 2.0 | 0.0 | 0.00 | 0.00 | 0.28 | 89 | 1008.3 |
| 20260506213209 | 47 | 215 | 3.0 | 0.0 | 0.00 | 0.00 | 0.28 | 89 | 1008.3 |
| 20260506210210 | 47 | 216 | 6.0 | 0.0 | 0.00 | 0.00 | 0.28 | 88 | 1008.3 |
| 20260506203210 | 48 | 218 | 6.0 | 0.0 | 0.00 | 0.00 | 0.28 | 87 | 1008.1 |
| 20260506200210 | 49 | 209 | 7.0 | 0.0 | 0.00 | 0.00 | 0.28 | 87 | 1007.9 |
| 20260506193215 | 48 | 207 | 10.0 | 0.0 | 0.00 | 0.00 | 0.28 | 88 | 1007.6 |
| 20260506190211 | 48 | 216 | 10.0 | 0.0 | 0.00 | 0.00 | 0.28 | 87 | 1007.1 |
| 20260506183209 | 49 | 213 | 9.0 | 0.0 | 0.00 | 0.00 | 0.28 | 86 | 1006.8 |
| 20260506180216 | 50 | 214 | 13.0 | 0.0 | 0.00 | 0.00 | 0.28 | 83 | 1006.6 |
| 20260506173210 | 52 | 192 | 11.0 | 0.0 | 0.00 | 0.00 | 0.28 | 83 | 1006.4 |
| 20260506170215 | 51 | 221 | 5.0 | 0.0 | 0.00 | 0.00 | 0.28 | 88 | 1006.0 |
| 20260506163210 | 50 | 221 | 6.0 | 0.0 | 0.00 | 0.00 | 0.28 | 89 | 1005.8 |
| 20260506160210 | 49 | 221 | 10.0 | 0.0 | 0.00 | 0.00 | 0.28 | 89 | 1005.6 |
| 20260506153210 | 49 | 219 | 12.0 | 0.0 | 0.00 | 0.00 | 0.25 | 89 | 1005.6 |
| 20260506150210 | 50 | 242 | 20.0 | 0.0 | 0.00 | 0.00 | 0.15 | 87 | 1005.3 |
| 20260506143210 | 53 | 205 | 19.0 | 0.0 | 0.00 | 0.00 | 0.10 | 86 | 1004.6 |
| 20260506140210 | 59 | 245 | 10.0 | 0.0 | 0.00 | 0.00 | 0.00 | 74 | 1003.6 |
| 20260506133211 | 60 | 245 | 5.0 | 0.0 | 0.00 | 0.00 | 0.00 | 70 | 1003.5 |
| 20260506130211 | 60 | 245 | 0.0 | 0.0 | 0.00 | 0.00 | 0.00 | 65 | 1003.4 |
| 20260506123210 | 61 | 245 | 2.0 | 0.0 | 0.00 | 0.00 | 0.00 | 65 | 1003.4 |
| 20260506120210 | 61 | 245 | 3.0 | 0.0 | 0.00 | 0.00 | 0.00 | 64 | 1003.1 |
| 20260506113217 | 61 | 245 | 2.0 | 0.0 | 0.00 | 0.00 | 0.00 | 65 | 1003.3 |
| 20260506110210 | 60 | 245 | 0.0 | 0.0 | 0.00 | 0.00 | 0.00 | 68 | 1003.6 |
| 20260506100213 | 58 | 245 | 0.0 | 0.0 | 0.00 | 0.00 | 0.00 | 69 | 1003.7 |
| 20260506093211 | 58 | 245 | 0.0 | 0.0 | 0.00 | 0.00 | 0.00 | 68 | 1004.1 |
| 20260506090211 | 58 | 245 | 0.0 | 0.0 | 0.00 | 0.00 | 0.00 | 69 | 1004.1 |
| 20260506083211 | 56 | 245 | 0.0 | 0.0 | 0.00 | 0.00 | 0.00 | 80 | 1003.9 |
| 20260506080212 | 54 | 245 | 0.0 | 0.0 | 0.00 | 0.00 | 0.00 | 83 | 1004.0 |
| 20260506073211 | 53 | 245 | 0.0 | 0.0 | 0.00 | 0.00 | 0.00 | 86 | 1004.2 |
| 20260506070212 | 52 | 245 | 3.0 | 0.0 | 0.00 | 0.00 | 0.00 | 87 | 1004.3 |
| 20260506060210 | 49 | 245 | 0.0 | 0.0 | 0.00 | 0.00 | 0.00 | 93 | 1004.1 |
| 20260506050211 | 44 | 245 | 0.0 | 0.0 | 0.00 | 0.00 | 0.00 | 93 | 1004.6 |
| 20260506043211 | 44 | 245 | 0.0 | 0.0 | 0.00 | 0.00 | 0.00 | 92 | 1004.7 |
| 20260506040211 | 44 | 245 | 0.0 | 0.0 | 0.00 | 0.00 | 0.00 | 91 | 1005.0 |
| 20260506033211 | 44 | 245 | 0.0 | 0.0 | 0.00 | 0.00 | 0.00 | 91 | 1005.2 |